Tucson, AZ

3:05 PM MST on October 01, 2016 (GMT -0700)
Davis-Monthan Air Force Base

Weather History for KDMA - June, 2013

Change the Weather History Date:

Saturday, June 1, 2013

  Actual Average Record
Temperature  
Mean Temperature 84 °F -  
Max Temperature 102 °F 94 °F 104 °F (1997)
Min Temperature 67 °F 62 °F 53 °F (1965)
Cooling Degree Days 20    
Growing Degree Days 34 (Base 50)    
Moisture  
Dew Point 34 °F    
Average Humidity 16    
Maximum Humidity 31    
Minimum Humidity 7    
Precipitation  
Precipitation 0.00 in - - ()
Sea Level Pressure  
Sea Level Pressure 29.71 in    
Wind  
Wind Speed 5 mph (WSW)    
Max Wind Speed 13 mph    
Max Gust Speed -    
Visibility 9 miles    
Events      
Averages and records for this station are not official NWS values.
T = Trace of Precipitation, MM = Missing Value Source: NWS Daily Summary

Daily Weather History Graph

Daily Weather History Graph

Search for Another Location

Airport or City:

Trip Planner

Search our weather history database for the weather conditions in past years. The results will help you decide how hot, cold, wet, or windy it might be!

Date:

Astronomy

Jun. 01, 2013 Rise Set
Actual Time 5:17 AM MST 7:25 PM MST
Civil Twilight 4:49 AM MST 7:53 PM MST
Nautical Twilight 4:15 AM MST 8:27 PM MST
Astronomical Twilight 3:39 AM MST 9:03 PM MST
Moon 12:53 AM MST 1:18 PM MST
Length of Visible Light 15h 03m
Length of Day
14h 07m
Last Quarter, 40% of the Moon is Illuminated
Jun 1
Last Quarter
Jun 8
New
Jun 16
First Quarter
Jun 23
Full
Jun 29
Last Quarter

Hourly Weather History & Observations

Time (MST) Temp. Dew Point Humidity Pressure Visibility Wind Dir Wind Speed Gust Speed Precip Events Conditions
12:58 AM 77.0 °F 37.9 °F 24% 29.75 in 10.0 mi South 4.6 mph - N/A   Clear
1:58 AM 72.7 °F 37.2 °F 27% 29.75 in 10.0 mi SSW 5.8 mph - N/A   Clear
2:58 AM 72.1 °F 36.9 °F 28% 29.73 in 10.0 mi SE 5.8 mph - N/A   Clear
3:58 AM 71.1 °F 36.7 °F 28% 29.73 in 10.0 mi SSE 5.8 mph - N/A   Clear
4:58 AM 67.8 °F 35.6 °F 30% 29.75 in 10.0 mi ESE 5.8 mph - N/A   Clear
5:58 AM 68.0 °F 35.8 °F 31% 29.76 in 10.0 mi SSE 4.6 mph - N/A   Clear
6:58 AM 75.4 °F 36.9 °F 25% 29.76 in 10.0 mi SE 5.8 mph - N/A   Clear
7:58 AM 81.5 °F 37.2 °F 20% 29.77 in 10.0 mi SE 4.6 mph - N/A   Clear
8:58 AM 87.1 °F 37.8 °F 17% 29.76 in 10.0 mi Calm Calm - N/A   Clear
9:58 AM 90.1 °F 37.4 °F 16% 29.74 in 10.0 mi North 1.2 mph - N/A   Clear
10:58 AM 92.3 °F 38.5 °F 15% 29.74 in 10.0 mi West 5.8 mph - N/A   Clear
11:58 AM 95.7 °F 38.1 °F 13% 29.72 in 9.0 mi NNW 3.5 mph - N/A   Clear
12:58 PM 97.5 °F 32.9 °F 10% 29.69 in 10.0 mi Variable 1.2 mph - N/A   Partly Cloudy
1:38 PM 100.4 °F 30.2 °F 9% 29.82 in 2.5 mi West 6.9 mph - N/A   Haze
1:43 PM 100.4 °F 30.2 °F 9% 29.82 in 4.0 mi Variable 4.6 mph - N/A   Haze
1:58 PM 99.9 °F 29.3 °F 8% 29.67 in 10.0 mi WNW 4.6 mph - N/A   Clear
2:58 PM 101.1 °F 27.0 °F 7% 29.66 in 10.0 mi NW 10.4 mph - N/A   Clear
3:58 PM 102.2 °F 27.7 °F 7% 29.62 in 10.0 mi Variable 1.2 mph - N/A   Clear
4:58 PM 102.2 °F 27.9 °F 7% 29.62 in 6.0 mi Calm Calm - N/A   Haze
5:58 PM 101.5 °F 27.3 °F 7% 29.62 in 10.0 mi NNW 6.9 mph - N/A   Clear
6:58 PM 99.5 °F 25.9 °F 7% 29.62 in 10.0 mi WNW 12.7 mph - N/A   Clear
7:58 PM 94.8 °F 33.3 °F 11% 29.63 in 10.0 mi NW 9.2 mph - N/A   Clear
8:58 PM 92.7 °F 37.6 °F 14% 29.65 in 10.0 mi WNW 9.2 mph - N/A   Clear
9:58 PM 90.1 °F 35.4 °F 14% 29.66 in 10.0 mi West 8.1 mph - N/A   Clear
10:58 PM 88.5 °F 37.4 °F 16% 29.69 in 10.0 mi SW 8.1 mph - N/A   Clear
11:58 PM 84.6 °F 38.7 °F 20% 29.69 in 10.0 mi WSW 8.1 mph - N/A   Clear